Wind_Speed
13 12 10 9 3 7 23 19 15 20 17 14 16 9 6 7 6 13 19 12 15 16 16 14 14 14 12 11 11 9 10 10 12 12 12 13 16 19 22 23 21 22 22 23 23 22 22 21 19
15 7 5 3 6 12 16 14 17 17 12 10 18 10 13 16 10 19 15 15 16 16 15 15 14 14 12 10 9 9 10 10 11 12 13 14 16 17 20 19 18 18 19 20 20 19 19 18 16
7 11 11 6 4 23 17 17 17 11 14 13 11 15 16 17 15 17 14 14 17 16 14 13 13 14 12 11 10 10 10 11 12 13 14 15 17 16 17 17 17 16 16 16 16 15 14 14 12
11 11 15 9 10 23 21 17 15 15 18 9 6 19 16 14 15 17 11 14 15 17 15 14 13 13 12 11 11 12 12 12 13 13 14 15 16 15 15 15 13 14 14 14 14 12 12 11 9
4 3 6 12 18 20 17 13 15 11 7 3 4 20 20 9 15 21 8 12 12 15 15 13 13 13 12 12 13 13 12 13 14 14 14 14 14 14 13 12 12 11 11 11 11 10 10 9 9
4 16 10 21 21 17 13 8 9 15 9 15 15 19 17 17 15 19 13 7 3 15 14 13 13 13 13 12 12 12 13 15 15 14 14 14 13 12 11 11 10 9 9 9 9 10 10 10 10
6 13 5 21 17 16 12 14 10 9 13 15 13 16 18 17 20 17 13 13 3 15 14 14 13 13 13 12 11 12 12 14 16 15 14 13 12 12 10 11 12 11 10 9 9 10 12 13 15
8 11 3 12 14 14 12 11 14 14 16 13 1 7 18 20 18 18 13 10 6 13 16 14 13 13 13 12 12 11 11 12 13 14 14 14 13 13 14 14 12 12 10 10 12 13 15 17 15
3 4 6 7 12 13 13 12 9 12 15 10 6 7 16 22 22 18 14 14 13 11 14 15 13 13 12 12 10 10 11 11 12 12 13 15 15 13 14 12 13 12 11 12 12 14 17 18 19
2 7 19 2 13 15 14 12 14 14 12 11 17 18 16 20 22 16 16 12 19 11 12 12 14 12 13 13 11 9 9 10 12 13 14 14 15 15 14 14 14 13 14 15 15 15 17 17 18
1 5 7 8 14 11 15 11 15 7 13 16 20 16 19 20 20 15 16 14 14 17 7 7 13 13 13 13 14 15 15 15 16 14 15 17 18 16 15 14 14 15 17 16 13 15 18 13 11
3 5 2 7 9 10 14 12 6 13 12 14 17 15 20 20 18 17 15 15 14 18 7 6 13 14 9 12 17 13 16 18 15 12 14 14 17 17 17 16 15 15 14 15 15 10 16 11 12
6 5 3 4 7 5 10 9 7 9 13 15 19 18 19 18 16 16 14 16 15 21 16 12 16 11 13 20 14 18 10 18 19 11 16 15 17 16 18 17 14 15 13 16 10 17 20 22 15
9 9 6 7 6 9 9 5 7 10 15 19 17 19 18 17 18 19 18 16 16 16 18 13 14 15 14 14 19 13 21 16 8 9 14 18 18 17 16 16 16 11 11 15 14 16 21 14 13
3 11 11 11 9 8 7 9 6 12 16 19 17 19 18 17 17 18 18 18 15 14 11 13 12 13 13 14 15 15 12 17 10 15 16 17 18 18 15 15 15 12 14 15 17 22 21 16 12
18 10 16 15 7 9 6 1 11 16 17 16 16 19 19 18 17 18 18 20 18 15 14 12 13 13 15 17 15 15 15 15 16 15 15 16 16 17 17 13 12 13 14 13 15 17 17 13 16
13 11 7 14 6 7 8 9 16 17 18 16 21 21 20 20 19 19 18 18 17 17 14 15 12 13 16 17 13 11 17 10 14 15 14 13 14 12 17 13 12 9 10 13 12 14 15 17 18
14 19 18 14 7 19 9 10 8 19 19 16 21 22 21 20 20 20 19 18 17 17 15 15 12 14 13 16 18 17 17 12 13 17 13 11 11 10 16 13 10 7 12 9 12 18 18 17 18
21 17 16 13 12 13 11 15 12 19 18 23 19 24 23 22 20 19 19 20 19 17 17 16 16 15 14 11 16 21 10 18 10 8 10 11 12 9 7 14 10 7 12 9 16 15 13 12 15
24 15 27 14 13 13 11 7 17 22 21 27 23 27 25 23 23 22 22 21 20 19 18 17 14 18 16 14 17 21 17 11 11 8 10 12 11 11 8 12 11 10 13 14 16 16 15 14 10
27 22 23 15 12 9 13 15 30 21 19 24 24 32 26 26 26 26 25 23 21 21 20 19 18 17 17 19 19 18 19 16 13 10 11 12 12 12 10 10 10 8 11 16 17 15 12 12 13
29 21 20 9 10 16 20 18 20 24 19 23 23 30 29 28 27 28 28 25 23 22 22 21 20 20 18 18 19 19 15 16 11 11 12 12 12 11 11 10 8 9 14 18 20 17 13 10 12
29 23 26 17 16 14 17 15 20 29 27 28 27 29 32 31 29 30 28 28 24 22 23 22 22 22 19 19 19 17 18 16 13 11 11 13 13 13 12 11 10 10 11 13 21 18 16 11 9
27 27 21 24 27 18 29 22 32 29 26 26 25 31 31 32 32 31 29 28 28 24 23 23 23 24 22 20 19 20 21 17 13 14 16 12 12 9 10 11 12 13 14 13 20 20 17 14 11
29 29 26 17 17 15 25 27 17 11 19 19 27 28 30 30 33 34 33 31 29 29 25 23 23 23 24 22 21 21 21 19 20 21 13 13 13 12 10 10 12 13 15 16 20 23 21 17 14
35 35 30 17 15 20 27 27 23 18 15 12 15 25 23 22 30 33 34 35 29 31 29 25 24 25 24 22 22 24 23 22 19 17 14 13 3 12 14 14 14 15 16 17 20 23 24 21 18
36 39 36 38 34 23 24 29 24 16 17 13 18 23 24 23 29 35 33 34 30 31 33 29 25 24 23 23 22 25 25 24 23 19 18 13 16 16 20 16 16 17 17 18 19 23 26 23 21
39 32 34 37 21 15 30 19 24 21 14 17 17 25 26 29 30 32 33 34 29 28 32 32 27 27 23 23 23 24 25 26 23 22 22 19 21 23 17 15 16 16 19 19 21 23 25 27 26
35 39 36 31 38 16 15 23 27 21 24 18 18 21 25 23 26 31 30 31 30 26 26 32 30 28 28 27 25 24 25 26 27 26 24 22 22 21 19 12 14 15 16 17 20 23 27 29 28
43 37 39 36 27 31 32 29 16 24 24 25 20 20 21 21 25 27 29 31 31 29 24 28 27 28 28 27 27 25 24 25 25 25 26 24 25 21 21 18 16 15 15 16 18 21 26 29 32
Wind_Direction
130 141 156 91 59 98 102 96 101 88 76 72 63 98 101 134 131 121 128 164 152 137 135 130 128 124 122 122 118 117 113 106 97 104 116 117 109 101 101 96 92 94 95 97 97 95 97 98 96
146 127 107 114 123 94 101 99 97 94 104 100 69 65 82 86 88 119 148 156 136 138 130 129 129 126 120 117 121 116 115 116 113 116 120 121 122 111 107 106 102 99 96 95 95 95 95 94 88
128 97 131 127 122 121 114 103 105 112 85 115 95 70 83 88 100 128 140 130 143 137 130 131 128 127 125 123 120 120 123 122 122 124 126 128 134 124 116 113 109 103 98 95 94 94 90 88 84
133 131 116 105 112 104 109 100 109 86 88 66 57 95 92 147 135 126 117 132 148 132 130 132 130 126 126 122 121 120 119 122 125 130 130 132 138 135 125 119 110 107 103 93 89 86 80 72 65
97 208 146 165 122 96 95 103 100 86 89 107 102 108 108 144 127 121 126 138 136 128 130 129 126 123 122 123 121 115 116 123 127 129 133 135 139 143 139 130 125 116 104 95 83 79 72 62 55
80 107 104 95 96 94 93 102 110 104 97 107 99 115 120 118 119 113 127 106 138 132 133 132 126 122 120 118 116 112 111 120 128 130 129 132 137 141 139 139 133 123 111 96 90 80 72 69 66
78 133 119 123 110 105 100 82 100 101 122 116 130 117 123 131 115 130 136 133 224 131 130 127 123 120 117 113 116 118 117 125 129 127 126 123 126 128 136 138 130 126 117 107 97 88 78 74 71
328 35 41 113 120 107 98 99 110 117 111 139 349 132 139 139 141 125 152 172 151 128 129 127 121 118 116 117 122 126 124 126 135 138 133 122 121 128 132 131 124 123 117 109 98 88 86 79 68
15 23 300 81 138 117 117 108 121 129 125 127 154 180 151 143 129 148 162 168 147 109 120 122 120 117 116 115 122 124 131 139 140 144 141 139 134 131 133 132 123 119 113 106 105 97 89 74 67
243 210 228 59 116 126 114 111 111 118 133 126 129 149 143 145 136 151 139 127 121 164 121 112 127 124 117 112 111 114 126 124 140 146 150 154 140 137 132 127 123 117 110 111 114 110 99 83 72
151 42 74 112 122 104 103 116 137 127 136 143 151 148 147 146 148 143 145 137 156 112 141 135 111 97 109 120 119 115 106 110 126 135 151 157 147 144 129 128 121 117 121 118 110 113 92 80 64
232 295 33 109 141 127 139 118 85 149 125 157 160 148 150 146 152 151 153 155 155 126 146 160 136 164 146 125 124 109 117 114 111 101 126 153 145 139 132 128 128 125 127 112 99 73 94 102 99
284 295 234 101 144 173 152 155 127 129 143 159 158 151 155 153 154 156 163 160 169 149 160 209 134 129 118 115 135 120 87 118 119 95 141 137 140 142 131 136 129 136 113 106 103 98 87 66 82
257 158 177 125 116 136 148 142 181 142 146 153 163 156 157 165 163 166 163 171 185 166 175 162 145 148 136 121 112 106 115 118 120 113 130 138 138 138 136 137 124 141 124 110 111 110 111 77 65
56 166 164 167 161 147 169 166 158 162 152 162 164 160 164 174 173 174 171 184 185 177 178 159 161 144 137 126 127 141 107 117 108 112 124 127 132 133 131 130 127 126 103 102 90 102 97 104 97
252 211 208 172 162 198 207 177 162 167 166 175 162 169 173 176 182 177 181 181 196 188 176 176 171 163 148 133 142 131 141 113 135 123 126 130 131 133 125 123 118 119 115 109 122 114 101 116 87
235 198 234 188 209 221 202 169 165 178 182 195 166 177 181 177 185 188 188 181 194 198 186 187 180 171 162 140 143 143 138 140 137 139 135 137 137 147 125 124 122 134 125 103 102 126 119 108 89
233 240 224 238 194 209 205 232 210 188 196 211 177 187 185 186 187 198 193 185 197 193 190 194 184 173 167 165 153 149 136 126 145 142 142 143 141 139 135 144 136 140 115 149 169 145 137 127 113
234 275 249 241 190 197 222 206 195 187 191 209 195 196 191 193 192 198 193 196 200 191 186 189 190 175 175 170 149 139 154 153 153 164 148 158 162 158 159 147 158 163 152 159 149 142 137 144 136
242 261 272 199 213 225 230 215 216 196 199 215 197 198 195 194 195 200 196 205 203 191 184 184 180 186 177 178 177 156 152 156 174 181 184 172 183 190 180 163 185 183 169 160 160 160 154 136 137
246 235 253 210 181 229 238 246 210 201 202 199 206 198 197 198 198 205 201 205 207 204 200 194 186 184 189 188 193 168 165 174 173 178 195 199 190 199 192 191 190 185 169 169 173 175 172 157 136
245 236 237 229 226 250 233 245 228 202 193 208 202 204 194 199 206 213 206 207 210 208 201 198 192 190 194 191 191 192 186 175 167 213 190 200 199 201 204 215 200 205 196 182 181 183 182 184 169
241 243 245 254 231 248 228 232 227 192 202 204 201 197 194 198 202 213 219 209 211 214 210 200 198 196 191 196 193 192 181 188 203 194 187 189 198 203 205 214 208 209 218 203 194 191 193 194 191
238 246 254 253 269 260 253 227 285 192 202 205 205 205 203 198 203 213 222 214 202 214 213 207 201 197 198 198 195 194 201 184 182 189 229 203 204 204 224 216 217 215 221 211 201 199 206 206 208
229 237 246 219 250 246 244 244 223 202 193 208 201 210 218 215 202 204 218 221 210 210 213 215 210 206 201 209 198 197 197 200 192 209 207 218 220 206 232 230 231 235 232 223 212 207 210 215 219
228 226 238 235 222 229 228 243 242 162 178 200 206 203 215 214 205 202 214 229 224 213 215 217 210 212 210 214 204 198 201 203 208 210 212 230 195 279 261 232 229 236 238 237 226 218 217 219 224
231 228 228 247 251 264 250 222 226 227 193 194 188 188 201 216 199 205 212 229 236 216 216 222 212 217 217 214 211 209 207 210 207 207 217 211 196 218 247 245 241 233 236 233 231 227 225 227 234
228 229 223 239 254 248 270 239 232 184 196 204 191 194 198 195 209 213 207 221 237 229 221 223 221 214 218 220 216 217 215 217 221 215 215 213 200 226 249 231 240 242 242 237 231 230 227 229 233
219 231 240 240 237 253 244 261 213 202 208 205 201 192 195 199 197 206 216 224 231 241 235 227 225 215 214 219 219 220 221 220 223 226 227 223 223 223 240 238 247 250 253 248 241 237 236 233 236
227 224 231 243 238 243 256 260 212 190 189 186 214 185 196 198 204 201 210 221 225 231 239 230 228 224 212 218 223 221 223 224 228 231 233 233 235 231 237 240 245 254 255 257 252 242 245 244 239
Height
3152 3152 3153 3152 3157 3154 3153 3157 3157 3159 3161 3163 3160 3161 3161 3163 3162 3168 3171 3172 3174 3176 3177 3178 3180 3181 3183 3184 3186 3188 3189 3190 3191 3193 3193 3194 3196 3197 3198 3198 3197 3201 3203 3204 3206 3208 3208 3210 3211
3151 3153 3153 3153 3155 3154 3156 3157 3160 3162 3162 3164 3166 3162 3162 3163 3163 3165 3169 3173 3175 3177 3178 3179 3181 3183 3185 3186 3188 3190 3191 3192 3193 3195 3195 3197 3199 3201 3201 3203 3205 3206 3208 3210 3211 3212 3213 3214 3216
3156 3155 3145 3152 3153 3155 3158 3160 3162 3163 3165 3165 3167 3166 3166 3167 3171 3169 3171 3174 3176 3178 3180 3181 3183 3184 3186 3188 3189 3191 3193 3194 3195 3197 3198 3199 3202 3204 3205 3207 3209 3210 3211 3214 3215 3216 3217 3218 3219
3157 3160 3157 3157 3153 3155 3158 3162 3163 3165 3168 3166 3166 3167 3169 3171 3171 3173 3174 3175 3176 3179 3181 3183 3184 3186 3188 3190 3191 3193 3194 3195 3197 3199 3201 3202 3204 3206 3208 3210 3211 3213 3215 3217 3218 3219 3219 3220 3221
3158 3144 3154 3156 3155 3157 3159 3164 3163 3167 3169 3167 3167 3169 3171 3172 3173 3177 3177 3178 3179 3180 3183 3184 3186 3187 3190 3192 3193 3195 3196 3197 3199 3200 3202 3204 3207 3209 3211 3213 3214 3216 3218 3219 3220 3221 3221 3222 3222
3153 3130 3153 3155 3157 3159 3161 3164 3166 3168 3171 3170 3170 3170 3172 3174 3177 3180 3182 3180 3181 3182 3185 3186 3188 3189 3191 3194 3195 3196 3198 3199 3200 3202 3205 3207 3209 3211 3213 3214 3217 3219 3220 3221 3223 3223 3224 3224 3225
3156 3158 3158 3157 3160 3159 3162 3165 3169 3171 3171 3174 3173 3171 3175 3179 3181 3184 3183 3182 3183 3185 3187 3189 3190 3192 3193 3195 3197 3198 3200 3201 3203 3205 3207 3210 3212 3214 3215 3217 3219 3221 3222 3223 3225 3226 3227 3227 3227
3156 3143 3158 3157 3161 3163 3165 3167 3171 3173 3175 3176 3175 3174 3178 3180 3183 3186 3186 3187 3187 3187 3188 3191 3192 3194 3195 3197 3199 3201 3202 3203 3205 3207 3209 3211 3213 3215 3217 3219 3221 3223 3224 3226 3228 3229 3230 3230 3230
3160 3159 3157 3157 3161 3164 3167 3169 3171 3173 3176 3179 3177 3176 3178 3181 3185 3187 3188 3189 3188 3189 3190 3192 3194 3196 3197 3199 3201 3202 3204 3205 3206 3208 3211 3212 3214 3217 3219 3221 3223 3225 3226 3228 3230 3231 3232 3232 3232
3164 3156 3152 3161 3161 3166 3168 3170 3173 3176 3179 3179 3179 3179 3179 3182 3186 3187 3190 3190 3192 3193 3194 3195 3196 3198 3200 3201 3203 3204 3205 3207 3208 3209 3212 3214 3217 3219 3221 3224 3225 3227 3229 3230 3232 3233 3234 3234 3233
3166 3155 3161 3162 3167 3169 3169 3173 3175 3178 3179 3181 3178 3178 3181 3183 3188 3189 3191 3195 3195 3195 3197 3198 3199 3200 3201 3203 3204 3205 3207 3208 3209 3211 3212 3215 3217 3221 3224 3226 3228 3230 3231 3232 3235 3235 3236 3235 3236
3167 3167 3166 3166 3168 3169 3170 3175 3174 3178 3181 3181 3181 3181 3183 3186 3190 3193 3193 3196 3197 3198 3201 3200 3202 3202 3203 3206 3207 3204 3209 3208 3211 3213 3215 3218 3220 3223 3225 3229 3231 3232 3234 3234 3236 3236 3237 3239 3239
3168 3168 3168 3170 3167 3168 3172 3175 3176 3178 3181 3180 3181 3183 3186 3190 3192 3196 3196 3198 3198 3200 3202 3201 3203 3203 3205 3208 3207 3206 3208 3213 3214 3217 3218 3220 3223 3226 3228 3231 3233 3234 3235 3236 3238 3241 3240 3241 3244
3167 3166 3167 3166 3169 3172 3173 3175 3176 3179 3179 3181 3182 3185 3188 3192 3193 3195 3197 3198 3198 3200 3201 3203 3204 3204 3207 3209 3210 3214 3215 3217 3215 3219 3220 3222 3225 3228 3231 3232 3234 3236 3238 3239 3241 3241 3242 3245 3247
3164 3166 3170 3170 3170 3173 3173 3175 3176 3179 3180 3181 3182 3187 3190 3192 3194 3195 3196 3198 3198 3199 3201 3204 3206 3207 3208 3211 3214 3214 3215 3217 3220 3222 3223 3224 3227 3230 3233 3235 3236 3238 3240 3242 3242 3244 3246 3249 3251
3167 3167 3166 3165 3171 3170 3173 3173 3175 3179 3180 3180 3181 3187 3191 3193 3194 3195 3196 3197 3198 3199 3200 3204 3206 3209 3211 3212 3214 3216 3218 3220 3224 3225 3227 3229 3230 3232 3234 3237 3239 3240 3242 3244 3245 3246 3247 3251 3253
3164 3165 3166 3166 3168 3171 3172 3172 3173 3179 3179 3179 3182 3187 3190 3191 3193 3193 3194 3196 3196 3198 3201 3203 3206 3209 3212 3213 3215 3217 3218 3222 3224 3227 3229 3231 3233 3234 3234 3239 3241 3243 3244 3243 3247 3249 3250 3253 3253
3162 3162 3162 3163 3165 3167 3170 3169 3170 3174 3178 3177 3181 3186 3188 3190 3191 3191 3193 3195 3196 3197 3201 3203 3205 3209 3212 3213 3214 3218 3221 3223 3226 3228 3231 3233 3235 3236 3237 3240 3242 3244 3243 3248 3248 3250 3252 3253 3254
3161 3162 3162 3163 3165 3166 3167 3165 3166 3170 3174 3175 3179 3183 3186 3189 3190 3189 3191 3193 3194 3196 3200 3203 3205 3208 3212 3214 3216 3217 3222 3225 3227 3229 3231 3234 3236 3238 3239 3241 3243 3244 3245 3247 3250 3252 3254 3256 3257
3162 3164 3158 3163 3165 3165 3164 3166 3164 3166 3169 3170 3175 3179 3183 3187 3188 3188 3189 3191 3193 3196 3199 3202 3205 3209 3212 3214 3215 3218 3223 3224 3228 3229 3231 3234 3237 3238 3240 3242 3244 3244 3246 3249 3251 3253 3254 3256 3259
3156 3159 3156 3156 3159 3162 3162 3160 3163 3164 3166 3167 3171 3175 3180 3184 3186 3186 3187 3189 3191 3194 3197 3201 3204 3207 3211 3213 3216 3219 3222 3223 3227 3228 3231 3233 3236 3238 3240 3242 3243 3245 3247 3249 3251 3254 3255 3257 3258
3153 3154 3155 3156 3160 3158 3158 3155 3156 3159 3163 3163 3166 3170 3176 3180 3183 3183 3185 3187 3189 3192 3196 3199 3202 3205 3209 3213 3216 3218 3221 3224 3226 3227 3230 3233 3236 3238 3240 3241 3244 3246 3246 3248 3250 3253 3255 3257 3258
3151 3151 3152 3152 3156 3154 3153 3153 3146 3153 3153 3156 3158 3162 3168 3175 3180 3179 3181 3184 3188 3190 3193 3196 3199 3203 3207 3210 3214 3218 3219 3223 3226 3228 3230 3232 3234 3236 3239 3241 3242 3244 3246 3248 3250 3253 3255 3256 3258
3150 3149 3149 3147 3148 3147 3146 3147 3144 3143 3148 3152 3155 3157 3162 3169 3174 3177 3179 3181 3185 3187 3190 3194 3197 3200 3205 3208 3212 3215 3219 3222 3226 3227 3229 3231 3233 3234 3236 3239 3241 3243 3244 3247 3249 3252 3254 3256 3257
3146 3146 3144 3146 3145 3141 3140 3140 3137 3144 3147 3148 3153 3155 3158 3164 3170 3174 3175 3177 3181 3184 3187 3191 3196 3199 3202 3205 3209 3213 3216 3220 3223 3224 3227 3230 3231 3233 3235 3237 3239 3241 3243 3245 3247 3249 3251 3254 3256
3137 3141 3139 3136 3134 3132 3134 3132 3135 3137 3141 3145 3143 3151 3154 3160 3163 3170 3171 3172 3177 3181 3184 3187 3193 3197 3200 3203 3207 3210 3213 3216 3220 3223 3226 3229 3231 3230 3233 3234 3237 3238 3241 3243 3245 3247 3249 3250 3253
3130 3131 3136 3134 3130 3127 3126 3127 3131 3134 3136 3143 3145 3147 3151 3153 3159 3165 3168 3169 3173 3177 3181 3184 3190 3195 3198 3202 3205 3208 3211 3214 3216 3221 3224 3227 3229 3230 3231 3233 3234 3236 3237 3239 3242 3244 3247 3250 3251
3124 3129 3132 3130 3127 3129 3123 3121 3128 3128 3135 3139 3141 3141 3148 3153 3158 3160 3165 3165 3169 3174 3178 3181 3185 3191 3195 3199 3202 3205 3209 3212 3214 3217 3219 3223 3227 3227 3230 3231 3232 3232 3234 3235 3237 3240 3243 3245 3247
3118 3120 3123 3125 3125 3122 3124 3118 3123 3124 3131 3136 3139 3140 3144 3149 3155 3160 3162 3163 3166 3170 3175 3177 3181 3186 3190 3194 3197 3201 3205 3208 3211 3214 3217 3219 3221 3224 3225 3228 3229 3231 3232 3233 3234 3236 3237 3241 3243
3112 3116 3121 3120 3120 3119 3119 3116 3111 3122 3128 3126 3138 3138 3142 3146 3151 3156 3161 3160 3163 3166 3170 3173 3177 3180 3186 3190 3194 3197 3202 3205 3207 3210 3213 3217 3218 3220 3222 3224 3227 3228 3229 3230 3231 3233 3235 3237 3238